[[{"header":{"parameterUnit":"m.s-1","parameterCategory":1,"la1":30.2991,"la2":30.254,"lo1":-89.0895,"lo2":-89.0444,"dy":0.0017,"dx":0.0017,"nx":28,"ny":28,"refTime":"2025-01-25T03:00:00:Z","depth":0,"parameterNumber":2,"parameterNumberName":"U-component_of_WINDS"},"data":[0,0,0,0,0,0,0,0,0,0,0,0,0,0,0,0,0,0,0,0,0,0,0,0,0,0,0,0,0,0,0,0,0,0,0,0,0,0,0,0,0,0,0,0,0,0,0,0,0,0,0,0,0,0,0,0,0,0,-2.3594,-2.3595,0,-2.3634,-2.3635,-2.3635,-2.3623,-2.3622,-2.3621,-2.3621,-2.3659,-2.3661,-2.3663,0,0,0,0,0,0,0,0,0,0,0,0,0,-2.3504,-2.3506,-2.3594,-2.3595,-2.3595,-2.3634,-2.3635,-2.3635,-2.3623,-2.3622,-2.3621,-2.362,-2.3659,-2.3661,-2.3663,0,0,0,0,0,0,0,0,0,0,0,0,0,-2.3544,-2.3507,-2.3594,-2.3594,-2.3594,-2.3634,-2.3635,-2.3635,-2.3623,-2.3622,-2.3621,-2.362,-2.3658,-2.3661,-2.3663,-2.3705,0,0,-2.3671,-2.3673,0,0,0,0,0,0,0,0,-2.3541,-2.3547,-2.3594,-2.3594,-2.3595,-2.3622,-2.3617,-2.3659,-2.3624,-2.3612,-2.3621,-2.3619,-2.3648,-2.3651,-2.3661,-2.3707,-2.3708,-2.3672,-2.3673,-2.3675,-2.3675,0,0,0,0,0,0,0,-2.3539,-2.3545,-2.361,-2.3594,-2.3595,-2.3591,-2.3595,-2.3625,-2.3636,-2.3613,-2.3612,-2.3618,-2.3648,-2.3659,-2.3662,-2.3709,-2.3672,-2.3674,-2.3676,-2.3677,-2.3788,-2.3789,0,0,0,0,0,0,-2.3536,-2.3543,-2.3609,-2.3611,-2.3565,-2.3594,-2.3598,-2.3615,-2.3636,-2.3638,-2.3619,-2.3617,-2.3655,-2.3659,-2.3664,-2.3712,-2.3674,-2.3677,-2.3679,-2.3786,-2.3788,-2.3789,0,0,0,0,0,0,-2.3534,-2.3542,-2.3607,-2.3577,-2.3585,-2.3596,-2.3615,-2.3616,-2.3627,-2.364,-2.3642,-2.3628,-2.3654,-2.366,-2.3694,-2.3713,-2.3678,-2.3681,-2.3785,-2.3787,-2.3789,-2.381,0,0,0,0,0,0,-2.3532,-2.3541,-2.3558,-2.3577,-2.3587,-2.3638,-2.3616,-2.3618,-2.3632,-2.363,-2.3649,-2.3651,-2.3654,-2.369,-2.3697,-2.3716,-2.3683,-2.3783,-2.3786,-2.3788,-2.3807,-2.3812,-2.3816,0,0,0,0,0,-2.3528,-2.3562,-2.3559,-2.3567,-2.3608,-2.3639,-2.3644,-2.3647,-2.3634,-2.365,-2.3658,-2.3651,-2.371,-2.3694,-2.3701,-2.3722,-2.3782,-2.3785,-2.3788,-2.3805,-2.3811,-2.3816,0,0,0,0,0,0,-2.3545,-2.3565,-2.3561,-2.3603,-2.362,-2.3637,-2.3658,-2.3653,-2.3674,-2.3671,-2.3672,-2.3677,-2.3712,-2.372,-2.3702,-2.3762,-2.3744,-2.3748,-2.3755,-2.376,-2.3765,-2.3761,-2.3685,0,0,0,0,0,-2.3553,-2.3578,-2.3594,-2.3629,-2.3638,-2.3646,-2.366,-2.3661,-2.3677,-2.3684,-2.3695,-2.3711,-2.3733,-2.3747,-2.3769,-2.3809,-2.3812,-2.3826,-2.3831,-2.3834,-2.3838,-2.3857,-2.3863,-2.3799,-2.3799,-2.3799,0,0,-2.3571,-2.3585,-2.36,-2.3633,-2.3645,-2.367,-2.3652,-2.3679,-2.3696,-2.3688,-2.3721,-2.3729,-2.3747,-2.3784,-2.3801,-2.3792,-2.3856,-2.3838,-2.3841,-2.3842,-2.3861,-2.3867,-2.3873,-2.3801,-2.3801,-2.38,0,0,-2.3615,-2.3629,-2.3658,-2.3672,-2.3691,-2.3697,-2.3704,-2.3722,-2.3728,-2.3761,-2.3754,-2.3775,-2.3814,-2.3826,-2.3837,-2.3885,-2.3878,-2.3892,-2.3914,-2.3933,-2.3938,-2.3943,-2.3958,-2.3963,-2.3895,-2.3895,-2.3895,0,-2.3634,-2.3671,-2.3674,-2.3701,-2.3714,-2.3709,-2.3738,-2.375,-2.3776,-2.3784,-2.3775,-2.3822,-2.3834,-2.3872,-2.3884,-2.3894,-2.39,-2.3889,-2.3938,-2.3942,-2.3946,-2.396,-2.3966,-2.3897,-2.3896,-2.3896,-2.3896,0,-2.3692,-2.3718,-2.3739,-2.3764,-2.378,-2.3808,-2.3814,-2.383,-2.3829,-2.3835,-2.3868,-2.3882,-2.3904,-2.3914,-2.3914,-2.3952,-2.3946,-2.3937,-2.3919,-2.3954,-2.3967,-2.3973,-2.3899,-2.3898,-2.3898,-2.3897,0,0,-2.3747,-2.3773,-2.378,-2.3791,-2.3812,-2.3831,-2.3858,-2.3881,-2.3893,-2.3911,-2.3932,-2.3965,-2.3956,-2.3969,-2.397,-2.3987,-2.4021,-2.3975,-2.3976,-2.3982,-2.4062,-2.4067,-2.4073,-2.4017,-2.4018,-2.4019,-2.406,0,-2.3791,-2.3839,-2.3842,-2.3885,-2.3907,-2.3902,-2.3925,-2.3939,-2.3946,-2.3965,-2.3972,-2.3994,-2.3982,-2.3989,-2.4006,-2.4013,-2.4037,-2.4011,-2.4035,-2.4036,-2.4029,-2.4081,-2.4087,-2.4124,-2.4065,-2.4066,-2.4067,0,-2.3849,-2.3868,-2.3913,-2.3929,-2.3939,-2.396,-2.398,-2.3999,-2.4015,-2.4018,-2.4032,-2.403,-2.4056,-2.4038,-2.4073,-2.4055,-2.4065,-2.407,-2.4072,-2.4073,-2.4052,-2.4081,-2.4137,-2.4141,-2.4075,-2.4075,-2.4074,0,-2.3881,-2.3919,-2.395,-2.3959,-2.398,-2.3994,-2.4003,-2.4018,-2.4031,-2.4049,-2.4057,-2.4077,-2.4088,-2.4103,-2.4106,-2.4093,-2.414,-2.4123,-2.4142,-2.4142,-2.415,-2.415,-2.4206,-2.4161,-2.416,-2.416,-2.416,0,-2.3929,-2.3956,-2.3965,-2.3984,-2.4013,-2.4017,-2.4046,-2.4054,-2.4067,-2.4086,-2.4083,-2.4101,-2.4104,-2.4123,-2.4125,-2.4152,-2.4158,-2.416,-2.416,-2.4159,-2.4159,-2.4165,-2.4161,-2.4162,-2.4162,-2.4161,-2.4161,0,-2.397,-2.3977,-2.4011,-2.4027,-2.4032,-2.4053,-2.4066,-2.4083,-2.4089,-2.4114,-2.4119,-2.4128,-2.415,-2.4154,-2.418,-2.4182,-2.4213,-2.4212,-2.4208,-2.4207,-2.4225,-2.4222,-2.4286,-2.4293,-2.4244,-2.4245,-2.4245,0,-2.4,-2.402,-2.4039,-2.4052,-2.4061,-2.4082,-2.4095,-2.4099,-2.4113,-2.4131,-2.4146,-2.4167,-2.4184,-2.4218,-2.4226,-2.4245,-2.4243,-2.4264,-2.4246,-2.4244,-2.4241,-2.4239,-2.424,-2.4267,-2.4267,-2.4268,-2.4268,0,-2.405,-2.4052,-2.4071,-2.4092,-2.4107,-2.4123,-2.4139,-2.4149,-2.4155,-2.417,-2.4192,-2.4205,-2.4231,-2.4251,-2.427,-2.4278,-2.4273,-2.4274,-2.4279,-2.4278,-2.4274,-2.4274,-2.4215,-2.4272,-2.4272,-2.4271,-2.4271,-2.4271,-2.4084,-2.4102,-2.4117,-2.4138,-2.415,-2.4164,-2.4181,-2.4188,-2.4207,-2.4228,-2.4229,-2.4253,-2.4266,-2.4291,-2.4301,-2.4318,-2.4311,-2.4319,-2.4321,-2.4322,-2.4323,-2.4272,-2.4322,-2.4322,-2.4322,-2.4321,-2.4321,0,-2.4133,-2.4142,-2.4162,-2.4183,-2.4199,-2.4195,-2.4211,-2.4224,-2.4245,-2.4259,-2.4275,-2.4299,-2.4319,-2.4328,-2.4347,-2.4359,-2.4357,-2.4364,-2.4362,-2.4363,-2.4329,-2.4321,-2.4365,-2.4365,-2.4365,-2.4365,-2.4365,-2.4365,-2.416,-2.4188,-2.4192,-2.4225,-2.4234,-2.4257,-2.4267,-2.4279,-2.429,-2.4317,-2.4333,-2.434,-2.4351,-2.437,-2.4387,-2.4389,-2.4396,-2.4403,-2.4404,-2.4371,-2.4366,-2.4362,-2.4355,-2.4404,-2.4405,-2.4437,-2.4437,-2.4437]},{"header":{"parameterUnit":"m.s-1","parameterCategory":1,"la1":30.2991,"la2":30.254,"lo1":-89.0895,"lo2":-89.0444,"dy":0.0017,"dx":0.0017,"nx":28,"ny":28,"refTime":"2025-01-25T03:00:00:Z","depth":0,"parameterNumber":3,"parameterNumberName":"V-component_of_WINDS"},"data":[0,0,0,0,0,0,0,0,0,0,0,0,0,0,0,0,0,0,0,0,0,0,0,0,0,0,0,0,0,0,0,0,0,0,0,0,0,0,0,0,0,0,0,0,0,0,0,0,0,0,0,0,0,0,0,0,0,0,0.1009,0.1011,0,0.1157,0.1159,0.1161,0.1157,0.1155,0.1153,0.1151,0.1308,0.1313,0.1319,0,0,0,0,0,0,0,0,0,0,0,0,0,0.0729,0.0734,0.1009,0.1011,0.1013,0.1157,0.1159,0.1161,0.1157,0.1155,0.1152,0.115,0.1306,0.1313,0.132,0,0,0,0,0,0,0,0,0,0,0,0,0,0.0861,0.0735,0.1009,0.1028,0.1031,0.1156,0.1159,0.1162,0.1158,0.1154,0.1151,0.1149,0.1303,0.1312,0.1321,0.1439,0,0,0.1349,0.1353,0,0,0,0,0,0,0,0,0.0853,0.0871,0.1023,0.1027,0.1031,0.1135,0.1118,0.1255,0.1158,0.111,0.1151,0.1147,0.1253,0.1266,0.1301,0.1446,0.1453,0.135,0.1355,0.1359,0.1362,0,0,0,0,0,0,0,0.0844,0.0865,0.1068,0.1025,0.103,0.1031,0.1047,0.1144,0.1197,0.1114,0.1114,0.1131,0.1254,0.1292,0.1304,0.1455,0.1349,0.1358,0.1363,0.1367,0.1707,0.1711,0,0,0,0,0,0,0.083,0.0857,0.1063,0.1072,0.0932,0.1039,0.1056,0.1105,0.1196,0.1207,0.1134,0.113,0.1278,0.1294,0.131,0.1456,0.1359,0.1368,0.1373,0.1704,0.1708,0.1712,0,0,0,0,0,0,0.0824,0.0849,0.1057,0.0965,0.0991,0.1047,0.1102,0.1109,0.1147,0.1211,0.1221,0.1162,0.1276,0.1297,0.1407,0.1461,0.1372,0.138,0.17,0.1705,0.171,0.1748,0,0,0,0,0,0,0.0816,0.0846,0.089,0.0966,0.0996,0.115,0.1105,0.1114,0.1162,0.1159,0.124,0.125,0.1275,0.1393,0.1416,0.1472,0.1387,0.1695,0.1702,0.1708,0.1742,0.1754,0.1764,0,0,0,0,0,0.0806,0.0895,0.0892,0.0917,0.1052,0.1153,0.1171,0.1196,0.1166,0.1212,0.1253,0.1248,0.1451,0.1405,0.143,0.149,0.1692,0.17,0.1708,0.1737,0.1751,0.1763,0,0,0,0,0,0,0.0826,0.0905,0.0903,0.1019,0.1079,0.1152,0.121,0.121,0.1281,0.1276,0.1306,0.1325,0.1435,0.1473,0.142,0.161,0.1568,0.1582,0.1581,0.1596,0.1606,0.1596,0.1395,0,0,0,0,0,0.0843,0.0917,0.0983,0.1079,0.1109,0.1155,0.12,0.1214,0.1278,0.1304,0.1354,0.1418,0.1497,0.1548,0.1623,0.1747,0.1766,0.1801,0.1811,0.182,0.1832,0.1904,0.1921,0.1739,0.1739,0.1738,0,0,0.0881,0.0934,0.0979,0.1085,0.1133,0.1211,0.1176,0.1259,0.1319,0.1317,0.1425,0.1463,0.1537,0.1655,0.1709,0.169,0.1887,0.183,0.1837,0.1845,0.1914,0.1931,0.1946,0.1744,0.1743,0.1742,0,0,0.099,0.1036,0.1122,0.1171,0.1244,0.1274,0.1295,0.1368,0.1394,0.1501,0.1503,0.1574,0.1708,0.1762,0.1806,0.1937,0.1936,0.1961,0.2019,0.2088,0.2102,0.2115,0.2165,0.2182,0.1972,0.1972,0.1972,0,0.1028,0.1144,0.1167,0.1251,0.1299,0.13,0.139,0.1436,0.1531,0.1566,0.1542,0.1712,0.1761,0.1893,0.1925,0.196,0.1988,0.1953,0.2098,0.2111,0.2124,0.2172,0.219,0.1975,0.1975,0.1974,0.1974,0,0.1189,0.1269,0.133,0.1421,0.1476,0.1562,0.16,0.1653,0.1663,0.1696,0.1807,0.1867,0.1956,0.1988,0.1998,0.2122,0.2109,0.2091,0.205,0.2144,0.2189,0.2208,0.1979,0.1978,0.1977,0.1976,0,0,0.1316,0.1418,0.144,0.1483,0.1564,0.1628,0.1715,0.1801,0.1847,0.1913,0.1989,0.2103,0.2088,0.2139,0.2156,0.2216,0.232,0.2192,0.2194,0.2216,0.2464,0.2478,0.2499,0.2318,0.2322,0.2325,0.2459,0,0.1435,0.1589,0.1613,0.1749,0.1826,0.1828,0.1905,0.1964,0.1998,0.2069,0.2107,0.2188,0.216,0.2192,0.2251,0.2294,0.237,0.2285,0.2393,0.2396,0.2377,0.2522,0.2538,0.2661,0.2476,0.2479,0.2481,0,0.1596,0.1665,0.1808,0.1881,0.1914,0.1983,0.2065,0.2132,0.22,0.2221,0.2278,0.2288,0.2382,0.2334,0.2466,0.2407,0.2453,0.2481,0.2486,0.25,0.2447,0.2543,0.2701,0.2721,0.2509,0.2507,0.2505,0,0.1677,0.1806,0.191,0.1945,0.2032,0.2081,0.212,0.2185,0.2236,0.2308,0.2342,0.2424,0.247,0.2535,0.2568,0.253,0.2698,0.2653,0.2721,0.272,0.2758,0.2756,0.2929,0.2782,0.2782,0.2782,0.2781,0,0.181,0.1899,0.1948,0.2012,0.2112,0.2139,0.2239,0.2277,0.2335,0.2408,0.2415,0.2484,0.2522,0.2598,0.2624,0.2731,0.2751,0.2772,0.2779,0.2774,0.2771,0.2806,0.28,0.2787,0.2786,0.2785,0.2784,0,0.192,0.1955,0.2069,0.2142,0.2162,0.2233,0.2297,0.2361,0.2393,0.2486,0.251,0.2562,0.2652,0.269,0.28,0.2818,0.2942,0.294,0.2918,0.2921,0.2988,0.2983,0.3192,0.3223,0.3053,0.3054,0.3055,0,0.2004,0.2072,0.2152,0.2201,0.2241,0.2319,0.2371,0.2401,0.2455,0.2539,0.2594,0.2683,0.2756,0.2899,0.2949,0.3034,0.3037,0.3104,0.305,0.3043,0.3042,0.3039,0.3048,0.3115,0.3117,0.3118,0.312,0,0.215,0.2165,0.2238,0.2319,0.238,0.2445,0.2509,0.2549,0.2589,0.2651,0.2741,0.2798,0.291,0.3,0.3089,0.3131,0.3134,0.3136,0.3157,0.3154,0.314,0.3152,0.2949,0.3132,0.3131,0.313,0.3129,0.3128,0.2252,0.2314,0.238,0.2463,0.2513,0.2573,0.2637,0.2678,0.2754,0.2847,0.286,0.2958,0.3028,0.3146,0.3192,0.3271,0.3255,0.3284,0.3292,0.33,0.3306,0.3124,0.3287,0.3287,0.3286,0.3286,0.3286,0,0.2401,0.2444,0.2519,0.2608,0.2674,0.2668,0.2739,0.2795,0.2881,0.2944,0.3016,0.3122,0.3209,0.3266,0.3355,0.3407,0.3411,0.343,0.3428,0.3439,0.3313,0.3288,0.3426,0.3426,0.3426,0.3426,0.3426,0.3426,0.2487,0.2592,0.2615,0.2747,0.2789,0.2884,0.2926,0.2982,0.3034,0.3151,0.3223,0.3258,0.3321,0.3414,0.3495,0.351,0.3544,0.3565,0.3579,0.3461,0.3447,0.3433,0.341,0.3571,0.3571,0.3698,0.3699,0.37]}]]